User: anonymous   Login
Location: Unspecified
(0.0000°N, 0.0000°E)
Time: 09:43:20
(UTC+00:00)
Language:

Tiungsat 1 - Orbit

View from above orbital plane
View from above orbital plane
View from above satellite
View from above satellite

Ground track
Ground track

The orbit data is extracted from the following two-line orbital elements,

1 26548U 00057D   18018.47324447 +.00000053 +00000-0 +21883-4 0  9994
2 26548 064.5514 048.2508 0010469 210.6623 149.3876 14.89132851937952
Epoch (UTC): 18 January 2018 11:21:28
Eccentricity: 0.0010469
inclination: 64.5514°
perigee height: 593 km
apogee height: 608 km
right ascension of ascending node: 48.2508°
argument of perigee: 210.6623°
revolutions per day: 14.89132851
mean anomaly at epoch: 149.3876°
orbit number at epoch: 93795

The dashed part of the orbit path shows where the satellite is in the earth's shadow,  

DLR